Flag for France Weather past 2 weeks in Orléans, France

Now
36 °F

Mostly cloudy.


Feels Like: 27 °F
Forecast: 20 / 37 °F
Wind: 14 mph from North

Location: Orleans Airport

Current Time: Dec 28, 2014 at 2:49:53 AM

Latest Report: Dec 28, 2014 at 2:30 AM


Visibility: N/A

Pressure: 29.77 "Hg

Humidity: 87%

Dew point: 32 °F

Location of OrléansLocation

Historic Weather in Orléans — Graph

°F

Orléans temperature yesterday

Maximum temperature yesterday: 48 °F (at 4:00 AM)
Minimum temperature yesterday: 34 °F (at 11:30 PM)
Average temperature yesterday: 42 °F

Past Weeks' High & Low Weather Summary

 TemperatureHumidityPressure
High55 °F (Dec 18, 10:30 AM)100% (Dec 13, 6:00 PM)30.60 "Hg (Dec 13, 6:00 PM)
Low28 °F (Dec 14, 8:30 PM)61% (Dec 27, 2:30 PM)29.68 "Hg (Dec 27, 5:30 AM)
Average44 °F90%30.18 "Hg
* Reported Dec 13 1:00 AM — Dec 28 1:30 AM, Orléans, Weather by CustomWeather, © 2014

Note: Actual official high and low records may vary slightly from our data, if they occured in-between our weather recording intervals... More about our weather records

Advertising

Orléans weather history for previous 24 hours

 ConditionsComfort  
Time TempWeatherWind HumidityBarometerVisibility
1:30 AM
Dec 28
36 °FPartly cloudy.12 mph87%29.74 "HgN/A
1:00 AM36 °FPartly cloudy.12 mph87%29.74 "HgN/A
12:30 AM36 °FPartly cloudy.12 mph87%29.74 "HgN/A
12:00 AM34 °FPassing clouds.13 mph93%29.74 "HgN/A
11:30 PM
Dec 27
34 °FClear.13 mph93%29.74 "HgN/A
11:00 PM36 °FClear.14 mph87%29.71 "HgN/A
10:30 PM36 °FClear.12 mph87%29.71 "HgN/A
10:00 PM36 °FClear.13 mph93%29.71 "HgN/A
9:30 PM36 °FClear.12 mph87%29.71 "HgN/A
9:00 PM36 °FClear.10 mph93%29.71 "HgN/A
8:30 PM37 °FPassing clouds.12 mph87%29.71 "HgN/A
8:00 PM39 °FMostly cloudy.14 mph81%29.71 "HgN/A
7:30 PM39 °FPassing clouds.13 mph81%29.71 "HgN/A
7:00 PM39 °FClear.12 mph81%29.71 "HgN/A
6:30 PM39 °FOvercast.13 mph81%29.71 "HgN/A
6:00 PM39 °FPartly cloudy.9 mph81%29.71 "HgN/A
5:30 PM41 °FPassing clouds.13 mph70%29.71 "HgN/A
5:00 PM41 °FPartly sunny.13 mph70%29.71 "HgN/A
4:30 PM41 °FScattered clouds.14 mph70%29.74 "HgN/A
4:00 PM43 °FClear.15 mph61%29.74 "HgN/A
3:30 PM43 °FOvercast.18 mph66%29.74 "HgN/A
3:00 PM45 °FMore clouds than sun.23 mph61%29.74 "HgN/A
2:30 PM45 °FMore clouds than sun.21 mph61%29.74 "HgN/A
2:00 PM43 °FPartly sunny.22 mph66%29.74 "HgN/A
1:30 PM43 °FPartly sunny.24 mph71%29.74 "HgN/A
1:00 PM43 °FMore clouds than sun.28 mph71%29.74 "HgN/A
12:30 PM43 °FPartly sunny.21 mph71%29.77 "HgN/A
12:00 PM43 °FMore clouds than sun.23 mph71%29.77 "HgN/A
11:30 AM43 °FMostly cloudy.21 mph71%29.77 "HgN/A
11:00 AM43 °FMostly cloudy.22 mph71%29.77 "HgN/A
10:30 AM41 °FPartly sunny.25 mph76%29.77 "HgN/A
10:00 AM41 °FScattered clouds.26 mph76%29.74 "HgN/A
9:30 AM43 °FBroken clouds.25 mph71%29.74 "HgN/A
9:00 AM43 °FPartly sunny.25 mph71%29.74 "HgN/A
8:30 AM43 °FPassing clouds.26 mph71%29.71 "HgN/A
8:00 AM43 °FPartly cloudy.23 mph81%29.71 "HgN/A
7:30 AM45 °FLight rain. Passing clouds.24 mph81%29.71 "HgN/A
7:00 AM45 °FPartly cloudy.25 mph81%29.68 "HgN/A
6:30 AM46 °FPassing clouds.29 mph76%29.68 "HgN/A
6:00 AM46 °FPartly cloudy.31 mph76%29.68 "HgN/A
5:30 AM46 °FClear.29 mph82%29.68 "HgN/A
4:30 AM48 °FPassing clouds.22 mph94%29.74 "HgN/A
4:00 AM48 °FPartly cloudy.20 mph94%29.77 "HgN/A
3:30 AM46 °FPartly cloudy.17 mph100%29.80 "HgN/A
3:00 AM46 °FOvercast.17 mph93%29.80 "HgN/A
2:30 AM46 °FPassing clouds.21 mph93%29.83 "HgN/A
2:00 AM45 °FMostly cloudy.22 mph100%29.89 "HgN/A
Weather by CustomWeather, © 2014

See weather overviewHow to use our weather pages